Time,TemperatureF,DewpointF,PressureIn,WindDirection,WindDirectionDegrees,WindSpeedMPH,WindSpeedGustMPH,Humidity,HourlyPrecipIn,Conditions,Clouds,dailyrainin,SoftwareType,DateUTC
2013-04-21 00:01:00,48.0,45.0,29.76,North,0,0.0,0.0,91,0.00,,,0.00,,2013-04-21 07:01:00,
2013-04-21 00:11:00,47.0,45.0,29.76,North,0,0.0,0.0,92,0.00,,,0.00,,2013-04-21 07:11:00,
2013-04-21 00:21:00,47.0,45.0,29.76,North,0,0.0,0.0,92,0.00,,,0.00,,2013-04-21 07:21:00,
2013-04-21 00:31:00,47.0,45.0,29.76,North,0,0.0,0.0,93,0.00,,,0.00,,2013-04-21 07:31:00,
2013-04-21 00:42:00,47.0,45.0,29.76,North,0,0.0,0.0,93,0.00,,,0.00,,2013-04-21 07:42:00,
2013-04-21 00:52:00,47.0,45.0,29.76,North,0,0.0,0.0,94,0.00,,,0.00,,2013-04-21 07:52:00,
2013-04-21 01:01:00,47.0,45.0,29.76,North,0,0.0,0.0,94,0.00,,,0.00,,2013-04-21 08:01:00,
2013-04-21 01:11:00,47.0,45.0,29.76,North,0,0.0,0.0,94,0.00,,,0.00,,2013-04-21 08:11:00,
2013-04-21 01:21:00,47.0,45.0,29.76,North,0,0.0,0.0,94,0.00,,,0.00,,2013-04-21 08:21:00,
2013-04-21 01:32:00,46.0,45.0,29.75,North,0,0.0,0.0,95,0.00,,,0.00,,2013-04-21 08:32:00,
2013-04-21 01:42:00,46.0,45.0,29.75,North,0,0.0,0.0,95,0.00,,,0.00,,2013-04-21 08:42:00,
2013-04-21 01:52:00,46.0,45.0,29.75,North,0,0.0,0.0,95,0.00,,,0.00,,2013-04-21 08:52:00,
2013-04-21 02:01:00,46.0,45.0,29.75,North,0,0.0,0.0,95,0.00,,,0.00,,2013-04-21 09:01:00,
2013-04-21 02:11:00,46.0,45.0,29.75,North,0,0.0,0.0,95,0.00,,,0.00,,2013-04-21 09:11:00,
2013-04-21 02:21:00,45.0,44.0,29.74,North,0,1.0,0.0,96,0.00,,,0.00,,2013-04-21 09:21:00,
2013-04-21 02:32:00,45.0,44.0,29.74,North,0,1.0,0.0,96,0.00,,,0.00,,2013-04-21 09:32:00,
2013-04-21 02:43:00,45.0,44.0,29.74,North,0,1.0,0.0,96,0.00,,,0.00,,2013-04-21 09:43:00,
2013-04-21 02:53:00,45.0,44.0,29.74,North,0,1.0,0.0,96,0.00,,,0.00,,2013-04-21 09:53:00,
2013-04-21 03:02:00,45.0,44.0,29.72,North,0,0.0,0.0,97,0.00,,,0.00,,2013-04-21 10:02:00,
2013-04-21 03:12:00,45.0,44.0,29.72,North,0,0.0,0.0,97,0.00,,,0.00,,2013-04-21 10:12:00,
2013-04-21 03:22:00,45.0,44.0,29.73,North,0,0.0,0.0,97,0.00,,,0.00,,2013-04-21 10:22:00,
2013-04-21 03:32:00,45.0,44.0,29.73,North,0,0.0,0.0,97,0.00,,,0.00,,2013-04-21 10:32:00,
2013-04-21 03:42:00,45.0,44.0,29.73,North,0,0.0,0.0,97,0.00,,,0.00,,2013-04-21 10:42:00,
2013-04-21 03:52:00,44.0,43.0,29.72,North,0,0.0,0.0,98,0.00,,,0.00,,2013-04-21 10:52:00,
2013-04-21 04:02:00,44.0,43.0,29.71,North,0,0.0,0.0,98,0.00,,,0.00,,2013-04-21 11:02:00,
2013-04-21 04:12:00,44.0,43.0,29.71,North,0,0.0,0.0,98,0.00,,,0.00,,2013-04-21 11:12:00,
2013-04-21 04:22:00,44.0,43.0,29.71,North,0,0.0,0.0,98,0.00,,,0.00,,2013-04-21 11:22:00,
2013-04-21 04:33:00,44.0,43.0,29.71,North,0,0.0,0.0,98,0.00,,,0.00,,2013-04-21 11:33:00,
2013-04-21 04:42:00,44.0,43.0,29.71,North,0,0.0,0.0,98,0.00,,,0.00,,2013-04-21 11:42:00,
2013-04-21 05:22:00,43.0,43.0,29.71,North,0,0.0,0.0,99,0.00,,,0.00,,2013-04-21 12:22:00,
2013-04-21 05:32:00,43.0,43.0,29.71,North,0,0.0,0.0,99,0.00,,,0.00,,2013-04-21 12:32:00,
2013-04-21 05:42:00,43.0,43.0,29.71,North,0,0.0,0.0,99,0.00,,,0.00,,2013-04-21 12:42:00,
2013-04-21 05:52:00,42.0,42.0,29.71,North,0,0.0,0.0,99,0.00,,,0.00,,2013-04-21 12:52:00,
2013-04-21 06:01:00,42.0,42.0,29.72,North,0,0.0,0.0,99,0.00,,,0.00,,2013-04-21 13:01:00,
2013-04-21 06:11:00,42.0,42.0,29.72,North,0,0.0,0.0,99,0.00,,,0.00,,2013-04-21 13:11:00,
2013-04-21 06:21:00,43.0,43.0,29.71,North,0,0.0,0.0,99,0.00,,,0.00,,2013-04-21 13:21:00,
2013-04-21 06:32:00,42.0,42.0,29.72,North,0,0.0,0.0,99,0.00,,,0.00,,2013-04-21 13:32:00,
2013-04-21 06:42:00,42.0,42.0,29.72,North,0,0.0,0.0,99,0.00,,,0.00,,2013-04-21 13:42:00,
2013-04-21 06:52:00,42.0,42.0,29.72,North,0,0.0,1.0,99,0.00,,,0.00,,2013-04-21 13:52:00,
2013-04-21 07:01:00,42.0,42.0,29.72,North,0,0.0,1.0,99,0.00,,,0.00,,2013-04-21 14:01:00,
2013-04-21 07:11:00,42.0,42.0,29.72,North,0,0.0,1.0,99,0.00,,,0.00,,2013-04-21 14:11:00,
2013-04-21 07:21:00,42.0,42.0,29.73,North,0,0.0,0.0,99,0.00,,,0.00,,2013-04-21 14:21:00,
2013-04-21 07:31:00,43.0,43.0,29.74,North,0,0.0,0.0,99,0.00,,,0.00,,2013-04-21 14:31:00,
2013-04-21 07:42:00,43.0,43.0,29.74,North,0,0.0,0.0,99,0.00,,,0.00,,2013-04-21 14:42:00,
2013-04-21 07:52:00,43.0,43.0,29.74,North,0,0.0,0.0,99,0.00,,,0.00,,2013-04-21 14:52:00,
2013-04-21 08:01:00,47.0,47.0,29.74,North,0,0.0,1.0,99,0.00,,,0.00,,2013-04-21 15:01:00,
2013-04-21 08:11:00,47.0,47.0,29.74,North,0,0.0,1.0,99,0.00,,,0.00,,2013-04-21 15:11:00,
2013-04-21 08:22:00,50.0,50.0,29.75,North,0,0.0,1.0,99,0.00,,,0.00,,2013-04-21 15:22:00,
2013-04-21 08:33:00,50.0,50.0,29.75,North,0,0.0,1.0,99,0.00,,,0.00,,2013-04-21 15:33:00,
2013-04-21 08:42:00,50.0,50.0,29.75,North,0,0.0,1.0,99,0.00,,,0.00,,2013-04-21 15:42:00,
2013-04-21 08:53:00,50.0,50.0,29.75,North,0,0.0,1.0,99,0.00,,,0.00,,2013-04-21 15:53:00,
2013-04-21 09:03:00,59.0,54.0,29.75,North,0,0.0,1.0,85,0.00,,,0.00,,2013-04-21 16:03:00,
2013-04-21 09:22:00,62.0,55.0,29.75,North,0,0.0,2.0,78,0.00,,,0.00,,2013-04-21 16:22:00,
2013-04-21 09:52:00,67.0,55.0,29.75,North,0,0.0,25.0,66,0.00,,,0.00,,2013-04-21 16:52:00,
2013-04-21 10:01:00,70.0,55.0,29.75,North,0,0.0,2.0,59,0.00,,,0.00,,2013-04-21 17:01:00,
2013-04-21 11:02:00,78.0,54.0,29.74,North,0,0.0,1.0,43,0.00,,,0.00,,2013-04-21 18:02:00,
2013-04-21 11:32:00,81.0,53.0,29.73,North,0,0.0,1.0,38,0.00,,,0.00,,2013-04-21 18:32:00,
2013-04-21 11:52:00,82.0,52.0,29.73,North,0,0.0,1.0,36,0.00,,,0.00,,2013-04-21 18:52:00,
2013-04-21 12:02:00,82.0,51.0,29.73,North,0,0.0,2.0,34,0.00,,,0.00,,2013-04-21 19:02:00,
2013-04-21 15:52:00,74.0,52.0,29.68,WNW,295,2.0,5.0,47,0.00,,,0.00,,2013-04-21 22:52:00,
2013-04-21 16:02:00,74.0,52.0,29.67,WNW,295,2.0,5.0,47,0.00,,,0.00,,2013-04-21 23:02:00,
2013-04-21 16:12:00,74.0,52.0,29.67,WNW,295,2.0,5.0,47,0.00,,,0.00,,2013-04-21 23:12:00,
2013-04-21 16:22:00,74.0,52.0,29.67,WNW,295,2.0,5.0,47,0.00,,,0.00,,2013-04-21 23:22:00,
2013-04-21 16:32:00,74.0,52.0,29.67,WNW,295,2.0,5.0,47,0.00,,,0.00,,2013-04-21 23:32:00,
2013-04-21 16:42:00,74.0,52.0,29.67,WNW,295,2.0,5.0,47,0.00,,,0.00,,2013-04-21 23:42:00,
2013-04-21 16:52:00,74.0,52.0,29.66,WNW,295,2.0,5.0,47,0.00,,,0.00,,2013-04-21 23:52:00,
2013-04-21 17:01:00,73.0,55.0,29.66,NNW,338,3.0,6.0,53,0.00,,,0.00,,2013-04-22 00:01:00,
2013-04-21 17:31:00,72.0,54.0,29.66,NNW,341,1.0,6.0,53,0.00,,,0.00,,2013-04-22 00:31:00,
2013-04-21 17:42:00,72.0,54.0,29.66,NNW,341,1.0,6.0,53,0.00,,,0.00,,2013-04-22 00:42:00,
2013-04-21 17:52:00,72.0,55.0,29.66,North,7,0.0,4.0,55,0.00,,,0.00,,2013-04-22 00:52:00,
2013-04-21 18:01:00,72.0,55.0,29.66,North,7,0.0,4.0,55,0.00,,,0.00,,2013-04-22 01:01:00,
2013-04-21 18:11:00,72.0,55.0,29.66,North,7,0.0,4.0,55,0.00,,,0.00,,2013-04-22 01:11:00,
2013-04-21 18:21:00,72.0,55.0,29.66,North,7,0.0,4.0,55,0.00,,,0.00,,2013-04-22 01:21:00,
2013-04-21 18:32:00,68.0,54.0,29.66,NNW,347,1.0,6.0,60,0.00,,,0.00,,2013-04-22 01:32:00,
2013-04-21 18:42:00,68.0,54.0,29.66,NNW,347,1.0,6.0,60,0.00,,,0.00,,2013-04-22 01:42:00,
2013-04-21 18:52:00,68.0,54.0,29.66,NNW,347,1.0,6.0,60,0.00,,,0.00,,2013-04-22 01:52:00,
2013-04-21 19:01:00,67.0,52.0,29.66,North,0,0.0,2.0,59,0.00,,,0.00,,2013-04-22 02:01:00,
2013-04-21 19:11:00,67.0,52.0,29.66,North,0,0.0,2.0,59,0.00,,,0.00,,2013-04-22 02:11:00,
2013-04-21 19:21:00,67.0,52.0,29.66,North,0,0.0,2.0,59,0.00,,,0.00,,2013-04-22 02:21:00,
2013-04-21 19:31:00,67.0,52.0,29.66,North,0,0.0,2.0,59,0.00,,,0.00,,2013-04-22 02:31:00,
2013-04-21 19:41:00,67.0,52.0,29.66,North,0,0.0,2.0,59,0.00,,,0.00,,2013-04-22 02:41:00,
2013-04-21 20:02:00,60.0,51.0,29.66,North,0,0.0,1.0,71,0.00,,,0.00,,2013-04-22 03:02:00,
2013-04-21 20:11:00,60.0,51.0,29.66,North,0,0.0,1.0,71,0.00,,,0.00,,2013-04-22 03:11:00,
2013-04-21 20:22:00,60.0,51.0,29.66,North,0,0.0,1.0,71,0.00,,,0.00,,2013-04-22 03:22:00,
2013-04-21 20:33:00,58.0,50.0,29.67,North,0,0.0,2.0,75,0.00,,,0.00,,2013-04-22 03:33:00,
2013-04-21 20:42:00,58.0,50.0,29.67,North,0,0.0,2.0,75,0.00,,,0.00,,2013-04-22 03:42:00,
2013-04-21 20:52:00,57.0,49.0,29.68,North,0,0.0,0.0,75,0.00,,,0.00,,2013-04-22 03:52:00,
2013-04-21 21:02:00,56.0,49.0,29.68,North,0,0.0,1.0,76,0.00,,,0.00,,2013-04-22 04:02:00,
2013-04-21 21:12:00,56.0,49.0,29.68,North,0,0.0,1.0,76,0.00,,,0.00,,2013-04-22 04:12:00,
2013-04-21 21:23:00,56.0,49.0,29.68,North,0,0.0,1.0,76,0.00,,,0.00,,2013-04-22 04:23:00,
2013-04-21 21:32:00,55.0,49.0,29.69,North,0,0.0,1.0,80,0.00,,,0.00,,2013-04-22 04:32:00,
2013-04-21 21:43:00,55.0,49.0,29.69,North,0,0.0,1.0,80,0.00,,,0.00,,2013-04-22 04:43:00,
2013-04-21 21:52:00,55.0,49.0,29.69,North,0,0.0,1.0,80,0.00,,,0.00,,2013-04-22 04:52:00,
2013-04-21 22:02:00,55.0,49.0,29.69,North,0,0.0,1.0,80,0.00,,,0.00,,2013-04-22 05:02:00,
2013-04-21 22:11:00,55.0,49.0,29.69,North,0,0.0,1.0,80,0.00,,,0.00,,2013-04-22 05:11:00,